| time (UTC) | temp C | wind direction | speed KPH | gust KPH | rain 1hr cm | rain 24hr cm | rain mn cm | humidity % | barometer mb |
| 20260505041018 | 12 | 0 | 1.6 | 6.4 | 0.03 | 0.41 | 0.03 | 89 | 1009.5 |
| 20260505040019 | 12 | 0.0 | 3.2 | 0.03 | 0.41 | 0.03 | 90 | 1009.7 | |
| 20260505035029 | 12 | 338 | 1.6 | 6.4 | 0.03 | 0.41 | 0.03 | 90 | 1009.6 |
| 20260505034018 | 12 | 338 | 1.6 | 4.8 | 0.00 | 0.38 | 0.00 | 90 | 1009.7 |
| 20260505033018 | 12 | 0 | 1.6 | 3.2 | 0.00 | 0.38 | 0.00 | 90 | 1009.8 |
| 20260505032018 | 12 | 338 | 1.6 | 4.8 | 0.00 | 0.38 | 0.00 | 90 | 1009.8 |
| 20260505031018 | 12 | 338 | 1.6 | 6.4 | 0.00 | 0.38 | 0.00 | 89 | 1009.9 |
| 20260505030018 | 12 | 338 | 1.6 | 4.8 | 0.00 | 0.38 | 0.00 | 89 | 1010.0 |
| 20260505025018 | 12 | 338 | 1.6 | 3.2 | 0.00 | 0.38 | 0.00 | 89 | 1010.1 |
| 20260505024018 | 12 | 0.0 | 1.6 | 0.00 | 0.38 | 0.00 | 89 | 1010.3 | |
| 20260505023017 | 12 | 0.0 | 1.6 | 0.00 | 0.38 | 0.00 | 89 | 1010.4 | |
| 20260505022018 | 12 | 0.0 | 0.0 | 0.00 | 0.38 | 0.00 | 89 | 1010.6 | |
| 20260505021019 | 12 | 0.0 | 0.0 | 0.00 | 0.38 | 0.00 | 89 | 1010.7 | |
| 20260505020017 | 12 | 0.0 | 0.0 | 0.00 | 0.38 | 0.00 | 89 | 1010.5 | |
| 20260505015028 | 12 | 0.0 | 3.2 | 0.00 | 0.38 | 0.00 | 89 | 1010.3 | |
| 20260505014018 | 13 | 0.0 | 3.2 | 0.00 | 0.38 | 0.00 | 89 | 1010.3 | |
| 20260505013017 | 13 | 0.0 | 1.6 | 0.00 | 0.38 | 0.00 | 89 | 1010.5 | |
| 20260505012017 | 13 | 0.0 | 3.2 | 0.00 | 0.38 | 0.00 | 89 | 1010.7 | |
| 20260505011017 | 12 | 0.0 | 1.6 | 0.00 | 0.38 | 0.00 | 89 | 1010.8 | |
| 20260505010115 | 12 | 0.0 | 0.0 | 0.00 | 0.38 | 0.00 | 89 | 1011.0 | |
| 20260505005018 | 12 | 0.0 | 0.0 | 0.00 | 0.38 | 0.00 | 89 | 1011.0 | |
| 20260505004017 | 12 | 0.0 | 1.6 | 0.00 | 0.38 | 0.00 | 89 | 1011.0 | |
| 20260505003027 | 13 | 0.0 | 0.0 | 0.00 | 0.38 | 0.00 | 89 | 1010.9 | |
| 20260505002017 | 13 | 0.0 | 0.0 | 0.00 | 0.38 | 0.00 | 89 | 1011.0 | |
| 20260505001019 | 13 | 0.0 | 0.0 | 0.00 | 0.38 | 0.00 | 89 | 1011.0 | |
| 20260505000017 | 12 | 0.0 | 1.6 | 0.00 | 0.38 | 0.00 | 89 | 1011.1 | |
| 20260504235017 | 12 | 0.0 | 1.6 | 0.00 | 0.38 | 0.00 | 89 | 1011.2 | |
| 20260504234017 | 12 | 0.0 | 1.6 | 0.00 | 0.38 | 0.00 | 89 | 1011.2 | |
| 20260504233027 | 12 | 0.0 | 1.6 | 0.00 | 0.38 | 0.00 | 89 | 1011.1 | |
| 20260504232019 | 12 | 0.0 | 4.8 | 0.00 | 0.38 | 0.00 | 89 | 1011.0 | |
| 20260504231018 | 12 | 0.0 | 1.6 | 0.00 | 0.38 | 0.00 | 89 | 1011.0 | |
| 20260504230018 | 12 | 0.0 | 1.6 | 0.00 | 0.38 | 0.00 | 89 | 1011.2 | |
| 20260504225028 | 12 | 0.0 | 1.6 | 0.00 | 0.38 | 0.00 | 89 | 1011.5 | |
| 20260504224019 | 12 | 0.0 | 0.0 | 0.00 | 0.38 | 0.00 | 89 | 1011.6 | |
| 20260504223018 | 13 | 0.0 | 0.0 | 0.00 | 0.38 | 0.00 | 89 | 1011.8 | |
| 20260504222016 | 13 | 0.0 | 0.0 | 0.00 | 0.38 | 0.00 | 89 | 1011.9 | |
| 20260504221017 | 13 | 0.0 | 1.6 | 0.00 | 0.38 | 0.00 | 89 | 1012.0 | |
| 20260504220016 | 13 | 0.0 | 0.0 | 0.00 | 0.38 | 0.30 | 89 | 1012.1 | |
| 20260504215017 | 13 | 0.0 | 1.6 | 0.00 | 0.38 | 0.30 | 89 | 1012.2 | |
| 20260504214017 | 13 | 0.0 | 1.6 | 0.00 | 0.38 | 0.30 | 89 | 1012.1 | |
| 20260504213017 | 13 | 0.0 | 1.6 | 0.00 | 0.38 | 0.30 | 89 | 1012.2 | |
| 20260504212017 | 13 | 0.0 | 1.6 | 0.00 | 0.38 | 0.30 | 89 | 1012.3 | |
| 20260504211017 | 13 | 0.0 | 1.6 | 0.00 | 0.38 | 0.30 | 89 | 1012.4 | |
| 20260504210017 | 13 | 0.0 | 0.0 | 0.00 | 0.38 | 0.30 | 89 | 1012.3 | |
| 20260504205019 | 13 | 0.0 | 0.0 | 0.00 | 0.38 | 0.30 | 89 | 1012.3 | |
| 20260504204017 | 13 | 0.0 | 0.0 | 0.00 | 0.38 | 0.30 | 89 | 1012.4 | |
| 20260504203017 | 13 | 0.0 | 1.6 | 0.00 | 0.38 | 0.30 | 89 | 1012.3 | |
| 20260504202017 | 13 | 0.0 | 1.6 | 0.00 | 0.38 | 0.30 | 89 | 1012.3 | |
| 20260504201017 | 13 | 0.0 | 1.6 | 0.00 | 0.38 | 0.30 | 89 | 1012.2 | |
| 20260504200017 | 13 | 0.0 | 0.0 | 0.00 | 0.38 | 0.30 | 88 | 1012.3 | |
| 20260504195017 | 13 | 0.0 | 0.0 | 0.00 | 0.38 | 0.30 | 89 | 1012.4 | |
| 20260504194017 | 13 | 0.0 | 0.0 | 0.00 | 0.38 | 0.30 | 88 | 1012.5 | |
| 20260504193017 | 13 | 0.0 | 0.0 | 0.00 | 0.38 | 0.30 | 88 | 1012.5 | |
| 20260504192027 | 13 | 0.0 | 0.0 | 0.00 | 0.38 | 0.30 | 88 | 1012.4 | |
| 20260504191017 | 13 | 0.0 | 0.0 | 0.00 | 0.38 | 0.30 | 88 | 1012.3 | |
| 20260504190139 | 14 | 0.0 | 0.0 | 0.00 | 0.43 | 0.38 | 88 | 1012.2 | |
| 20260504185017 | 14 | 0.0 | 0.0 | 0.00 | 0.56 | 0.30 | 88 | 1012.3 | |
| 20260504184017 | 14 | 0.0 | 0.0 | 0.00 | 0.58 | 0.30 | 88 | 1012.3 | |
| 20260504183027 | 14 | 0.0 | 0.0 | 0.00 | 0.58 | 0.30 | 88 | 1012.2 | |
| 20260504182017 | 15 | 0.0 | 0.0 | 0.00 | 0.58 | 0.30 | 88 | 1012.1 | |
| 20260504181017 | 15 | 0.0 | 0.0 | 0.00 | 0.58 | 0.30 | 88 | 1012.0 | |
| 20260504180017 | 15 | 0.0 | 0.0 | 0.00 | 0.58 | 0.30 | 88 | 1011.9 | |
| 20260504175017 | 15 | 0.0 | 0.0 | 0.00 | 0.58 | 0.30 | 88 | 1011.9 | |
| 20260504174016 | 15 | 0.0 | 0.0 | 0.00 | 0.58 | 0.30 | 87 | 1012.0 | |
| 20260504173028 | 15 | 0.0 | 0.0 | 0.00 | 0.58 | 0.30 | 87 | 1011.9 | |
| 20260504172028 | 15 | 0.0 | 0.0 | 0.03 | 0.58 | 0.30 | 87 | 1011.9 | |
| 20260504171017 | 15 | 0.0 | 0.0 | 0.03 | 0.58 | 0.30 | 87 | 1011.9 | |
| 20260504151016 | 15 | 0.0 | 1.6 | 0.03 | 0.51 | 0.23 | 88 | 1012.3 | |
| 20260504141026 | 16 | 0.0 | 1.6 | 0.00 | 0.48 | 0.23 | 88 | 1012.7 | |
| 20260504081017 | 13 | 0.0 | 0.0 | 0.00 | 0.28 | 0.00 | 89 | 1013.5 | |
| 20260504050016 | 11 | 0.0 | 0.0 | 0.00 | 0.33 | 0.00 | 89 | 1012.4 |